Location: Brunembert
(50.7122°N, 1.8935°E)
Time: 09:34:18
(UTC+00:00)

Tiangong - Pass Details

Date: 30 September 2021
Orbit: 382 x 385 km, 41.5° (Epoch: 15 October)

Event Time Altitude Azimuth Distance (km) Brightness Sun altitude
Exits shadow 04:47:15 - 214° (SW) 1,462 3.6 -10.9°
Reaches altitude 10° 04:47:30 10° 211° (SSW) 1,397 3.5 -10.9°
Maximum altitude 04:49:24 15° 174° (S) 1,141 3.4 -10.6°
Drops below altitude 10° 04:51:17 10° 137° (SE) 1,397 4.4 -10.3°
Sets 04:53:57 0° 112° (ESE) 2,250 6.1 -9.9°
